Time,TemperatureF,DewpointF,PressureIn,WindDirection,WindDirectionDegrees,WindSpeedMPH,WindSpeedGustMPH,Humidity,HourlyPrecipIn,Conditions,Clouds,dailyrainin,SoftwareType,DateUTC
2013-03-25 00:00:00,43.3,33.0,29.88,West,263,0.0,7.0,67,0.00,,,0.16,weatherlink.com 1.10,2013-03-25 05:00:00,
2013-03-25 00:15:00,43.3,33.0,29.88,NW,311,1.0,5.0,68,0.00,,,0.00,weatherlink.com 1.10,2013-03-25 05:15:00,
2013-03-25 00:30:00,43.1,33.0,29.88,WNW,286,2.0,5.0,68,0.00,,,0.00,weatherlink.com 1.10,2013-03-25 05:30:00,
2013-03-25 00:45:00,42.7,33.0,29.89,WNW,296,1.0,7.0,69,0.00,,,0.00,weatherlink.com 1.10,2013-03-25 05:45:00,
2013-03-25 01:00:00,42.4,32.0,29.89,WNW,288,4.0,9.0,67,0.00,,,0.00,weatherlink.com 1.10,2013-03-25 06:00:00,
2013-03-25 01:15:00,42.2,32.0,29.90,WNW,290,1.0,11.0,67,0.00,,,0.00,weatherlink.com 1.10,2013-03-25 06:15:00,
2013-03-25 01:30:00,41.9,32.0,29.90,WNW,285,2.0,9.0,67,0.00,,,0.00,weatherlink.com 1.10,2013-03-25 06:30:00,
2013-03-25 01:45:00,41.6,31.0,29.90,WNW,294,4.0,9.0,66,0.00,,,0.00,weatherlink.com 1.10,2013-03-25 06:45:00,
2013-03-25 02:00:00,41.3,31.0,29.91,WNW,295,2.0,11.0,66,0.00,,,0.00,weatherlink.com 1.10,2013-03-25 07:00:00,
2013-03-25 02:15:00,41.2,30.0,29.91,West,270,1.0,6.0,65,0.00,,,0.00,weatherlink.com 1.10,2013-03-25 07:15:00,
2013-03-25 02:30:00,41.1,30.0,29.91,WNW,294,2.0,7.0,65,0.00,,,0.00,weatherlink.com 1.10,2013-03-25 07:30:00,
2013-03-25 02:46:00,41.1,30.0,29.91,WNW,296,1.0,7.0,65,0.00,,,0.00,weatherlink.com 1.10,2013-03-25 07:46:00,
2013-03-25 03:01:00,40.6,30.0,29.91,NW,322,1.0,6.0,66,0.00,,,0.00,weatherlink.com 1.10,2013-03-25 08:01:00,
2013-03-25 03:16:00,40.1,30.0,29.91,WNW,291,1.0,3.0,68,0.00,,,0.00,weatherlink.com 1.10,2013-03-25 08:16:00,
2013-03-25 03:31:00,39.7,31.0,29.92,NW,315,2.0,5.0,70,0.00,,,0.00,weatherlink.com 1.10,2013-03-25 08:31:00,
2013-03-25 03:46:00,39.7,30.0,29.92,WNW,291,4.0,9.0,68,0.00,,,0.00,weatherlink.com 1.10,2013-03-25 08:46:00,
2013-03-25 04:16:00,39.3,29.0,29.93,WSW,250,9.0,10.0,66,0.00,,,0.00,weatherlink.com 1.10,2013-03-25 09:16:00,
2013-03-25 05:01:00,38.1,29.0,29.94,WNW,294,5.0,6.0,69,0.00,,,0.00,weatherlink.com 1.10,2013-03-25 10:01:00,
2013-03-25 05:31:00,37.6,28.0,29.95,NW,305,6.0,7.0,68,0.00,,,0.00,weatherlink.com 1.10,2013-03-25 10:31:00,
2013-03-25 05:46:00,37.1,27.0,29.95,West,281,3.0,4.0,68,0.00,,,0.00,weatherlink.com 1.10,2013-03-25 10:46:00,
2013-03-25 06:16:00,36.4,27.0,29.96,West,259,2.0,5.0,70,0.00,,,0.00,weatherlink.com 1.10,2013-03-25 11:16:00,
2013-03-25 06:31:00,36.1,27.0,29.97,WNW,300,1.0,6.0,70,0.00,,,0.00,weatherlink.com 1.10,2013-03-25 11:31:00,
2013-03-25 06:46:00,35.5,27.0,29.97,NNW,339,3.0,5.0,72,0.00,,,0.00,weatherlink.com 1.10,2013-03-25 11:46:00,
2013-03-25 07:01:00,35.4,28.0,29.98,WNW,302,1.0,6.0,73,0.00,,,0.00,weatherlink.com 1.10,2013-03-25 12:01:00,
2013-03-25 07:16:00,36.0,27.0,29.99,WNW,290,0.0,6.0,70,0.00,,,0.00,weatherlink.com 1.10,2013-03-25 12:16:00,
2013-03-25 07:31:00,37.3,27.0,30.00,WNW,301,3.0,5.0,67,0.00,,,0.00,weatherlink.com 1.10,2013-03-25 12:31:00,
2013-03-25 07:46:00,38.1,28.0,30.01,WNW,295,3.0,7.0,66,0.00,,,0.00,weatherlink.com 1.10,2013-03-25 12:46:00,
2013-03-25 08:01:00,38.8,28.0,30.01,West,281,1.0,11.0,65,0.00,,,0.00,weatherlink.com 1.10,2013-03-25 13:01:00,
2013-03-25 08:17:00,39.9,29.0,30.02,West,262,4.0,7.0,64,0.00,,,0.00,weatherlink.com 1.10,2013-03-25 13:17:00,
2013-03-25 08:32:00,40.6,28.0,30.03,WSW,247,6.0,11.0,61,0.00,,,0.00,weatherlink.com 1.10,2013-03-25 13:32:00,
2013-03-25 08:47:00,41.2,28.0,30.04,NNW,339,3.0,9.0,60,0.00,,,0.00,weatherlink.com 1.10,2013-03-25 13:47:00,
2013-03-25 09:02:00,41.7,28.0,30.04,West,278,3.0,17.0,59,0.00,,,0.00,weatherlink.com 1.10,2013-03-25 14:02:00,
2013-03-25 09:17:00,42.3,28.0,30.04,NNW,328,3.0,10.0,57,0.00,,,0.00,weatherlink.com 1.10,2013-03-25 14:17:00,
2013-03-25 09:32:00,43.5,29.0,30.04,NE,44,8.0,8.0,56,0.00,,,0.00,weatherlink.com 1.10,2013-03-25 14:32:00,
2013-03-25 09:47:00,44.3,29.0,30.05,WSW,248,4.0,9.0,56,0.00,,,0.00,weatherlink.com 1.10,2013-03-25 14:47:00,
2013-03-25 10:02:00,45.2,29.0,30.06,NNW,328,2.0,11.0,53,0.00,,,0.00,weatherlink.com 1.10,2013-03-25 15:02:00,
2013-03-25 10:17:00,45.5,28.0,30.06,WNW,296,1.0,13.0,50,0.00,,,0.00,weatherlink.com 1.10,2013-03-25 15:17:00,
2013-03-25 10:32:00,45.8,28.0,30.05,West,277,5.0,12.0,50,0.00,,,0.00,weatherlink.com 1.10,2013-03-25 15:32:00,
2013-03-25 10:47:00,47.0,28.0,30.05,WNW,293,4.0,9.0,48,0.00,,,0.00,weatherlink.com 1.10,2013-03-25 15:47:00,
2013-03-25 11:02:00,47.9,28.0,30.04,NNW,334,5.0,10.0,47,0.00,,,0.00,weatherlink.com 1.10,2013-03-25 16:02:00,
2013-03-25 11:17:00,48.8,26.0,30.04,WNW,283,4.0,10.0,41,0.00,,,0.00,weatherlink.com 1.10,2013-03-25 16:17:00,
2013-03-25 11:32:00,49.8,26.0,30.04,WNW,297,3.0,10.0,40,0.00,,,0.00,weatherlink.com 1.10,2013-03-25 16:32:00,
2013-03-25 11:47:00,51.0,30.0,30.03,NW,317,10.0,10.0,44,0.00,,,0.00,weatherlink.com 1.10,2013-03-25 16:47:00,
2013-03-25 12:02:00,51.5,27.0,30.03,West,262,3.0,12.0,39,0.00,,,0.00,weatherlink.com 1.10,2013-03-25 17:02:00,
2013-03-25 12:17:00,52.7,26.0,30.02,SSE,152,4.0,13.0,36,0.00,,,0.00,weatherlink.com 1.10,2013-03-25 17:17:00,
2013-03-25 12:32:00,53.5,25.0,30.03,WNW,297,1.0,14.0,33,0.00,,,0.00,weatherlink.com 1.10,2013-03-25 17:32:00,
2013-03-25 12:47:00,54.5,26.0,30.02,WNW,296,6.0,13.0,34,0.00,,,0.00,weatherlink.com 1.10,2013-03-25 17:47:00,
2013-03-25 13:02:00,54.7,26.0,30.02,NW,316,3.0,13.0,33,0.00,,,0.00,weatherlink.com 1.10,2013-03-25 18:02:00,
2013-03-25 13:17:00,55.6,25.0,30.02,West,263,4.0,17.0,31,0.00,,,0.00,weatherlink.com 1.10,2013-03-25 18:17:00,
2013-03-25 13:32:00,55.1,25.0,30.01,NW,325,6.0,14.0,31,0.00,,,0.00,weatherlink.com 1.10,2013-03-25 18:32:00,
2013-03-25 13:47:00,55.1,25.0,30.00,NW,310,6.0,13.0,31,0.00,,,0.00,weatherlink.com 1.10,2013-03-25 18:47:00,
2013-03-25 14:02:00,56.1,25.0,30.00,WSW,249,6.0,12.0,30,0.00,,,0.00,weatherlink.com 1.10,2013-03-25 19:02:00,
2013-03-25 14:17:00,56.3,27.0,30.00,NW,318,1.0,14.0,32,0.00,,,0.00,weatherlink.com 1.10,2013-03-25 19:17:00,
2013-03-25 14:32:00,56.3,23.0,30.00,West,267,4.0,13.0,28,0.00,,,0.00,weatherlink.com 1.10,2013-03-25 19:32:00,
2013-03-25 14:47:00,55.9,25.0,30.00,WSW,256,7.0,15.0,30,0.00,,,0.00,weatherlink.com 1.10,2013-03-25 19:47:00,
2013-03-25 15:02:00,56.3,25.0,29.99,NNW,334,7.0,10.0,30,0.00,,,0.00,weatherlink.com 1.10,2013-03-25 20:02:00,
2013-03-25 15:17:00,57.5,25.0,30.00,NW,312,5.0,13.0,29,0.00,,,0.00,weatherlink.com 1.10,2013-03-25 20:17:00,
2013-03-25 15:32:00,56.5,23.0,29.99,NNW,345,8.0,16.0,27,0.00,,,0.00,weatherlink.com 1.10,2013-03-25 20:32:00,
2013-03-25 15:47:00,56.7,27.0,29.99,West,266,3.0,15.0,32,0.00,,,0.00,weatherlink.com 1.10,2013-03-25 20:47:00,
2013-03-25 16:02:00,56.9,24.0,29.98,South,170,5.0,14.0,28,0.00,,,0.00,weatherlink.com 1.10,2013-03-25 21:02:00,
2013-03-25 16:17:00,57.0,23.0,29.99,West,275,5.0,14.0,27,0.00,,,0.00,weatherlink.com 1.10,2013-03-25 21:17:00,
2013-03-25 16:32:00,56.7,22.0,29.98,WSW,239,3.0,14.0,26,0.00,,,0.00,weatherlink.com 1.10,2013-03-25 21:32:00,
2013-03-25 16:47:00,56.4,23.0,29.99,WNW,303,6.0,15.0,27,0.00,,,0.00,weatherlink.com 1.10,2013-03-25 21:47:00,
2013-03-25 17:02:00,56.5,22.0,29.99,WNW,284,4.0,14.0,26,0.00,,,0.00,weatherlink.com 1.10,2013-03-25 22:02:00,
2013-03-25 17:17:00,55.7,21.0,29.99,NW,316,9.0,12.0,26,0.00,,,0.00,weatherlink.com 1.10,2013-03-25 22:17:00,
2013-03-25 17:32:00,55.1,21.0,30.00,SSW,200,1.0,14.0,27,0.00,,,0.00,weatherlink.com 1.10,2013-03-25 22:32:00,
2013-03-25 17:47:00,54.3,21.0,30.00,WNW,300,3.0,13.0,27,0.00,,,0.00,weatherlink.com 1.10,2013-03-25 22:47:00,
2013-03-25 18:03:00,53.2,21.0,30.01,West,267,5.0,11.0,28,0.00,,,0.00,weatherlink.com 1.10,2013-03-25 23:03:00,
2013-03-25 18:18:00,52.4,22.0,30.02,WNW,293,2.0,8.0,30,0.00,,,0.00,weatherlink.com 1.10,2013-03-25 23:18:00,
2013-03-25 18:33:00,51.5,21.0,30.02,NW,305,3.0,10.0,30,0.00,,,0.00,weatherlink.com 1.10,2013-03-25 23:33:00,
2013-03-25 18:48:00,50.4,21.0,30.03,WNW,284,2.0,10.0,32,0.00,,,0.00,weatherlink.com 1.10,2013-03-25 23:48:00,
2013-03-25 19:03:00,49.3,20.0,30.04,WNW,291,2.0,9.0,32,0.00,,,0.00,weatherlink.com 1.10,2013-03-26 00:03:00,
2013-03-25 19:18:00,48.5,20.0,30.05,NW,317,4.0,6.0,33,0.00,,,0.00,weatherlink.com 1.10,2013-03-26 00:18:00,
2013-03-25 19:33:00,47.7,22.0,30.06,WNW,294,3.0,7.0,36,0.00,,,0.00,weatherlink.com 1.10,2013-03-26 00:33:00,
2013-03-25 19:48:00,46.7,23.0,30.07,NW,314,2.0,5.0,39,0.00,,,0.00,weatherlink.com 1.10,2013-03-26 00:48:00,
2013-03-25 20:03:00,46.6,22.0,30.08,NW,313,3.0,6.0,38,0.00,,,0.00,weatherlink.com 1.10,2013-03-26 01:03:00,
2013-03-25 20:18:00,45.9,22.0,30.09,WNW,288,1.0,8.0,39,0.00,,,0.00,weatherlink.com 1.10,2013-03-26 01:18:00,
2013-03-25 20:33:00,45.5,22.0,30.10,NNE,29,3.0,7.0,39,0.00,,,0.00,weatherlink.com 1.10,2013-03-26 01:33:00,
2013-03-25 20:48:00,44.8,23.0,30.11,West,281,1.0,7.0,42,0.00,,,0.00,weatherlink.com 1.10,2013-03-26 01:48:00,
2013-03-25 21:03:00,44.4,22.0,30.12,WNW,296,1.0,9.0,42,0.00,,,0.00,weatherlink.com 1.10,2013-03-26 02:03:00,
2013-03-25 21:18:00,44.0,23.0,30.13,NW,311,5.0,7.0,44,0.00,,,0.00,weatherlink.com 1.10,2013-03-26 02:18:00,
2013-03-25 21:33:00,43.4,23.0,30.14,NW,314,2.0,8.0,45,0.00,,,0.00,weatherlink.com 1.10,2013-03-26 02:33:00,
2013-03-25 21:48:00,42.5,23.0,30.15,WNW,288,1.0,4.0,46,0.00,,,0.00,weatherlink.com 1.10,2013-03-26 02:48:00,
2013-03-25 22:03:00,41.8,23.0,30.15,NNW,328,2.0,5.0,48,0.00,,,0.00,weatherlink.com 1.10,2013-03-26 03:03:00,
2013-03-25 22:18:00,41.2,24.0,30.16,NW,305,0.0,6.0,50,0.00,,,0.00,weatherlink.com 1.10,2013-03-26 03:18:00,
2013-03-25 22:33:00,40.6,24.0,30.16,WNW,300,2.0,6.0,51,0.00,,,0.00,weatherlink.com 1.10,2013-03-26 03:33:00,
2013-03-25 22:48:00,40.3,24.0,30.17,WNW,285,1.0,3.0,52,0.00,,,0.00,weatherlink.com 1.10,2013-03-26 03:48:00,
2013-03-25 23:03:00,39.7,25.0,30.17,WNW,297,0.0,3.0,55,0.00,,,0.00,weatherlink.com 1.10,2013-03-26 04:03:00,
2013-03-25 23:18:00,39.5,24.0,30.17,West,263,1.0,4.0,54,0.00,,,0.00,weatherlink.com 1.10,2013-03-26 04:18:00,
2013-03-25 23:33:00,38.8,24.0,30.18,WNW,300,1.0,3.0,56,0.00,,,0.00,weatherlink.com 1.10,2013-03-26 04:33:00,
2013-03-25 23:48:00,38.2,24.0,30.18,NW,305,0.0,3.0,58,0.00,,,0.00,weatherlink.com 1.10,2013-03-26 04:48:00,